Location: NJAA Observatory
(40.6819°N, 74.8979°W)
Time: 06:56:51
(UTC-04:00)

Daily predictions for brighter satellites

Satellite Brightness Start Highest point End
(mag) Time Altitude Azimuth Time Altitude Azimuth Time Altitude Azimuth
METEOR-M 4.4 18:36:29 10° SE 18:41:35 48° ENE 18:46:42 10° N
CZ-4 R/B 1.6 18:37:40 10° SSE 18:41:53 88° WSW 18:46:05 10° NNW
BREEZE-M DEB (TANK) 4.4 18:24:09 10° WSW 18:42:03 70° NNW 18:46:50 10° ENE
Cosmos 1452 Rocket 4.2 18:37:32 10° N 18:42:16 33° ENE 18:46:57 10° SE
COSMO-SKYMED 1 3.0 18:38:54 10° NNE 18:43:03 42° E 18:47:09 10° S
Meteor 2-15 Rocket 4.4 18:37:05 10° N 18:43:12 80° E 18:49:19 10° S
Cosmos 1408 Rocket 4.0 18:43:40 10° NNW 18:48:06 71° W 18:52:31 10° S
IRS-1A Rocket 4.5 18:43:07 10° SSE 18:48:58 88° WSW 18:54:55 10° NNW
SL-24 R/B - RUBIN 2 4.2 18:45:55 10° NNW 18:50:32 38° NE 18:54:43 10° ESE
SMAP 3.9 18:46:24 10° S 18:50:57 58° W 18:55:34 10° NNW
SL-14 R/B 4.4 18:49:30 10° NNW 18:53:12 48° W 18:56:55 10° SSW
BREEZE-M DEB (TANK) 0.8 18:51:45 10° WNW 18:54:03 89° SW 18:56:04 10° ESE
Cosmos 2218 Rocket 4.0 18:51:07 10° S 18:57:17 89° W 19:03:28 10° N
Cosmos 44 Rocket 4.4 18:58:07 10° SSE 19:01:46 23° ESE 19:05:04 12° ENE
DELTA 2 R/B (1) 3.7 18:56:53 10° W 19:02:29 79° S 19:07:30 13° E
Cosmos 1626 2.1 19:01:43 10° N 19:05:28 87° E 19:09:11 10° S
FREGAT/IRIS 4.2 19:05:27 16° E 19:05:48 17° ENE 19:07:48 10° NNE
YAOGAN 1 3.0 19:02:16 10° S 19:06:34 67° WSW 19:10:54 10° NNW
COSMOS 2428 3.5 19:02:41 10° N 19:07:40 30° ENE 19:12:24 11° ESE
Cosmos 1339 Rocket 4.5 19:01:29 10° N 19:07:52 79° E 19:14:06 10° S
Cosmos 2360 Rocket 2.2 19:02:24 10° NNW 19:08:02 66° ENE 19:13:40 10° SSE
Cosmos 1727 Rocket 4.0 19:01:44 10° N 19:08:07 77° E 19:14:27 10° S
Cosmos 2333 Rocket 3.6 19:06:47 10° N 19:10:43 19° NE 19:12:55 15° ENE
Cosmos 1833 4.2 19:07:25 10° SSW 19:13:07 85° ESE 19:18:48 10° NNE
SL-8 R/B 3.7 19:09:16 10° WSW 19:14:06 88° NNW 19:18:06 15° ENE
Iridium 4 Rocket 4.0 19:09:38 10° SSE 19:14:45 42° E 19:20:12 10° NNE
ISS -0.5 19:13:58 10° WSW 19:14:58 11° SW 19:15:59 10° SSW
Cosmos 2322 Rocket 3.5 19:10:04 10° NW 19:15:22 44° WSW 19:20:39 10° S
Cosmos 2219 3.9 19:11:50 10° SSE 19:16:46 30° ESE 19:21:43 10° NE
Tiangong 1 4.0 19:16:31 10° SW 19:16:53 10° SW 19:17:15 10° SSW
GP-B 3.6 19:16:03 10° N 19:20:27 64° W 19:24:50 10° SSW
Cosmos 1048 Rocket 4.4 19:16:46 10° S 19:21:31 39° ESE 19:26:15 10° NE
Cosmos 1315 Rocket 2.8 19:17:48 10° N 19:21:51 62° E 19:25:54 10° SSE
Cosmos 2151 3.1 19:18:40 10° N 19:22:58 79° W 19:27:12 10° S
Cosmos 1420 Rocket 4.0 19:22:35 10° NNW 19:27:51 60° ENE 19:33:04 10° SSE
Meteor 2-1 Rocket 4.4 19:22:27 10° S 19:28:14 85° W 19:34:09 10° N
GRACE-2 3.9 19:26:19 10° S 19:28:52 69° W 19:31:26 10° N
Thor Agena Rocket 3.6 19:24:10 10° NNE 19:29:08 50° E 19:34:01 10° S
SKYMED 2 4.3 19:26:52 10° N 19:31:07 55° WNW 19:35:19 10° SSW
CZ-4C R/B 2.5 19:26:48 10° S 19:31:30 38° ESE 19:34:51 19° ENE
GRACE-1 4.3 19:29:03 10° S 19:31:35 58° W 19:34:09 10° N
Envisat 4.5 19:32:19 18° NE 19:32:19 18° NE 19:35:04 10° NNE
APEX 2.8 19:30:44 10° S 19:33:58 47° ESE 19:34:23 43° E
FENGYUN 3A 3.6 19:30:44 10° SSE 19:36:07 87° ENE 19:41:34 10° NNW
Cosmos 2322 3.7 19:32:37 10° NNW 19:38:23 89° WSW 19:44:05 10° SSE
Delta 2 Rocket 3.8 19:36:47 10° WSW 19:40:10 35° S 19:41:01 30° SE
RESURS DK-1 2.8 19:37:57 10° NNW 19:42:04 63° WSW 19:46:07 10° SSE
Cosmos 158 Rocket 3.8 19:37:19 10° SSW 19:42:19 76° ESE 19:47:30 10° NNE
Lacrosse 5 rocket 4.1 19:44:36 10° NNW 19:45:24 10° NNW 19:46:11 10° N
SJ-6B 3.0 19:45:28 43° ENE 19:45:28 43° ENE 19:49:02 10° N
Cosmos 2221 2.5 19:41:59 10° S 19:46:17 85° W 19:50:40 10° N
Cosmos 2058 4.3 19:42:33 10° NNW 19:46:29 41° W 19:50:22 10° SSW
ALOS 2.6 19:42:15 10° S 19:46:53 67° W 19:51:33 10° NNW
Atlas Centaur 2 3.6 19:51:38 10° WSW 19:55:39 25° S 19:58:05 19° SSE
Cosmos 921 Rocket 3.7 19:51:29 10° NNW 19:55:51 57° WSW 20:00:07 10° S
ASTRO E2 4.4 19:54:14 10° SW 19:57:15 21° S 19:57:53 20° S
Cosmos 2219 Rocket 2.4 19:51:59 10° NNW 19:57:21 45° ENE 19:58:26 40° E
Resurs 01 Rocket 3.2 19:59:59 21° NNE 19:59:59 21° NNE 20:01:51 10° N
Gbstr 26 Del rocket 4.0 19:55:36 10° NW 20:00:39 52° NNE 20:02:16 40° ENE
Cosmos 1269 Rocket 3.9 20:01:19 10° SSW 20:06:35 89° ESE 20:11:54 10° NNE
Abrixas rocket 4.3 20:04:49 10° NW 20:07:04 20° N 20:07:04 20° N
Cosmos 1726 2.3 20:06:07 10° SSW 20:09:49 71° W 20:12:40 16° N
Cosmos 1535 Rocket 4.4 20:04:17 10° S 20:10:25 90° NW 20:16:33 10° N
USA 267 3.2 20:09:11 36° ENE 20:11:54 63° SE 20:18:22 10° SW
Meteor 2-10 3.8 20:07:29 10° S 20:12:27 69° E 20:17:32 10° NNE
Cosmos 2333 4.2 20:08:17 10° NNW 20:14:01 87° WSW 20:16:56 31° SSE
Cosmos 2098 Rocket 3.9 20:15:48 10° SSW 20:19:59 56° WNW 20:25:23 10° N
NOSS 0 Rocket 3.9 20:15:01 10° NNW 20:21:05 55° ENE 20:21:21 55° ENE
H-2A R/B 3.7 20:19:22 24° SSW 20:21:24 48° W 20:25:12 10° NNW
Cosmos 44 3.5 20:19:16 10° SW 20:23:33 57° NW 20:24:23 47° NNW
Cosmos 2237 Rocket 2.9 20:23:07 10° NNW 20:27:16 38° NNE 20:27:16 38° NNE
In-Cosmos 22 Rocket 4.1 20:23:16 10° N 20:29:01 77° E 20:29:30 71° SE
Sich 1 3.4 20:25:03 10° NNW 20:28:51 63° NW 20:28:51 63° NW
Spot 2 Rocket 4.5 20:37:27 36° N 20:37:27 36° N 20:40:29 10° N
Cosmos 2227 Rocket 4.5 20:30:04 10° S 20:30:08 10° S 20:30:08 10° S
Aureole 2 Rocket 4.4 20:34:10 10° NNW 20:36:10 29° NW 20:36:10 29° NW
Meteor 2-2 Rocket 4.4 20:32:18 10° S 20:39:43 48° NNE 20:43:43 10° N
SL-16 R/B 4.1 20:33:31 10° N 20:35:24 17° NNE 20:35:24 17° NNE
Cosmos 44 Rocket 4.3 20:38:34 10° WSW 20:43:01 41° NW 20:43:51 38° NNW
Cosmos 1110 Rocket 4.5 20:39:43 10° NNW 20:43:46 53° NNW 20:43:46 53° NNW
USA 234 3.9 20:46:39 38° NNE 20:46:39 38° NNE 20:52:35 10° NW
DELTA 2 R/B (1) 4.3 20:43:23 10° W 20:48:17 44° SW 20:48:17 44° SW
Cosmos 1980 4.4 20:46:16 10° NNW 20:50:11 45° N 20:50:11 45° N
COSMOS 2428 3.9 20:46:45 10° NW 20:52:00 39° WSW 20:54:29 26° SSW
Cosmos 2333 Rocket 2.5 20:49:52 10° NNW 20:54:58 66° WNW 20:54:58 66° WNW
CZ-3A R/B 4.1 20:42:27 10° NW 21:00:33 56° NNE 21:01:29 53° NE
Cosmos 2219 4.5 20:55:26 10° SW 21:00:46 39° WNW 21:05:22 14° N
CZ-4C R/B 3.5 21:15:09 10° WSW 21:19:59 34° NW 21:20:08 34° NW
Cosmos 2219 Rocket 4.1 21:36:33 10° NW 21:40:13 24° W 21:40:13 24° W
